STARLINK-1473 (45737 NORAD) Tracking and Keplerian Element Data

This shows tracking and keplerian element data for the satellite.

Feedback or suggestion? Click here.




ElementValue
Catalog45737
NameSTARLINK-1473
Epoch Orbit446
Epoch Day185.50001157
Epoch Year2020
RAAN198.3283
Inclination53.0014
Eccentricity0.0001105
Argument of Perigee98.4076
Mean Anonmoly249.6547
Mean Motion15.62766753
Decay Rate0.00048579
L11 45737U 20038H 20185.50001157 .00048579 00000-0 53291-3 0 9990
L22 45737 53.0014 198.3283 0001105 98.4076 249.6547 15.62766753 4465

Live tracking and technical data element details for STARLINK-1473 (NORAD 45737). STARLINK-1473 can be tracked NOW for your location showing map with azimuth and elevation plus other details from your city location.

Track the satellite on the map from your city or location and see movement details for azimuth, elevation, latitude, longitude, range, height, and movement on the map or in text.







IsCatalogInMostPopularTable: catalog: 45737, numindb: 3
Update: records affected: 1



GetName: 45737 STARLINK-1473

Hit Count: updated at: Sat, 04 Jul 2020 01:35:10 GMT